Zurück zum Katalog

STARLINK-3362

AktivKommunikationVLEO
NORAD 51108·PAYLOAD·🇺🇸 United States

Gestartet Jan 19, 2022 von Cape Canaveral Space Force Station

Loading…

Nächste Überflüge (nächste 24 Stunden)

TLE

AktuellSource: CelesTrak SupGP

Epoche: Sep 14, 2026, 21:51 UTC

1 51108C 22005E   26257.91090278 -.00022142  00000+0 -63362-3 0  2574
2 51108  53.1575 151.8337 0001238  90.4266 120.2855 15.35404136    18

Verfolge STARLINK-3362 in Echtzeit mit AllMySat

Download on the App Store